Zurück zum Katalog

STARLINK-36884

AktivKommunikationSSO
NORAD 68026·PAYLOAD·🇺🇸 United States

Gestartet Mar 1, 2026 von Vandenberg Space Force Base

Loading…

Nächste Überflüge (nächste 24 Stunden)

TLE

AktuellSource: CelesTrak SupGP

Epoche: Sep 15, 2026, 02:58 UTC

1 68026C 26040M   26258.12409722  .00036755  00000+0  11413-2 0  2589
2 68026  97.2857 205.5213 0001870  97.7194 237.2888 15.33411070    17

Verfolge STARLINK-36884 in Echtzeit mit AllMySat

Download on the App Store